Location: Voyageurs National Park
(48.5020°N, 92.9292°W)
Time: 03:18:18
(UTC-05:00)

Daily predictions for brighter satellites

Satellite Brightness Start Highest point End
(mag) Time Altitude Azimuth Time Altitude Azimuth Time Altitude Azimuth
Cosmos 1805 3.5 00:01:23 10° NNW 00:05:16 59° W 00:06:19 42° SSW
Cosmos 2058 Rocket 3.4 00:02:45 10° NNW 00:07:13 61° W 00:08:50 37° SSW
Cosmos 1842 3.2 00:06:40 46° SSW 00:07:45 80° W 00:11:42 10° N
Cosmos 1470 3.1 00:06:17 10° N 00:10:06 52° ENE 00:10:54 43° ESE
Cosmos 1818 4.2 00:13:58 33° SE 00:14:56 36° ESE 00:19:53 10° NE
Terra 3.7 00:12:52 15° SW 00:15:25 22° W 00:19:05 10° NW
Iridium 4 Rocket 3.8 00:12:59 35° S 00:15:35 82° E 00:21:32 10° N
Cosmos 2333 Rocket 3.2 00:14:14 10° NW 00:19:22 35° WSW 00:21:38 25° SSW
CZ-4C R/B 3.8 00:20:13 40° SE 00:21:37 61° ENE 00:26:01 10° N
COSMOS 2428 4.4 00:17:54 10° NW 00:22:06 22° W 00:24:36 16° SW
USA 234 4.2 00:17:40 10° ENE 00:23:55 49° NNW 00:30:11 10° W
SL-16 R/B 2.3 00:18:17 10° NNW 00:23:58 69° ENE 00:26:44 31° SE
Abrixas rocket 2.4 00:20:54 10° W 00:23:34 57° W 00:23:34 57° W
ALOS 2 2.6 00:23:42 45° SE 00:24:58 72° ENE 00:29:23 10° N
DELTA 2 DEB (DPAF) 4.1 00:23:52 45° SSE 00:25:13 78° ENE 00:29:42 10° NNW
ISS -3.2 00:22:59 10° WNW 00:26:13 55° NNE 00:27:41 28° ENE
Cosmos 1953 2.2 00:23:01 10° N 00:27:02 87° W 00:27:47 58° S
SL-19 R/B 4.4 00:25:27 10° NNE 00:31:43 86° ESE 00:34:35 33° SSW
Cosmos 1980 4.3 00:28:03 10° NW 00:33:23 44° WSW 00:35:20 32° SSW
Cosmos 1812 Rocket 3.4 00:33:17 10° N 00:37:41 88° E 00:38:43 52° SSE
Cosmos 1707 2.9 00:37:14 52° SE 00:37:41 56° E 00:41:33 10° NNE
Cosmos 2279 Rocket 4.5 00:34:45 23° SW 00:38:31 55° WNW 00:44:38 10° N
Cosmos 1626 Rocket 3.5 00:38:06 48° SSW 00:39:20 82° W 00:43:50 10° N
Cosmos 2056 Rocket 4.4 00:36:45 10° NNW 00:41:37 41° ENE 00:44:26 22° ESE
Cosmos 1602 Rocket 3.5 00:40:48 50° SSW 00:41:56 87° W 00:46:23 10° N
Cosmos 1538 Rocket 4.3 00:40:21 27° SW 00:43:09 63° WNW 00:48:24 10° NNE
CZ-4 R/B 4.1 00:38:26 10° N 00:43:26 68° WNW 00:45:35 34° SW
Cosmos 2297 Rocket 2.1 00:41:29 33° SSW 00:44:09 90° ESE 00:49:52 10° NNE
ADEOS Rocket 2.9 00:39:19 10° NNE 00:44:50 59° E 00:46:45 38° SSE
Cosmos-2242 4.4 00:43:31 10° N 00:47:19 30° ENE 00:48:51 24° ESE
Cosmos 2227 Rocket 2.2 00:44:40 29° SW 00:47:38 79° WNW 00:53:21 10° NNE
Cosmos 923 Rocket 3.9 00:48:09 42° S 00:49:55 74° ESE 00:55:11 10° NNE
Cosmos 1680 Rocket 3.6 00:49:28 42° SSE 00:50:56 59° ESE 00:56:05 10° NNE
Cosmos 2237 Rocket 3.1 00:45:59 10° NW 00:51:06 35° WSW 00:52:51 29° SW
Cosmos 2112 Rocket 4.2 00:52:41 41° SSE 00:54:04 54° ESE 00:59:08 10° NNE
Cosmos 1758 Rocket 4.3 00:53:11 36° SE 00:54:10 41° E 00:58:24 10° NNE
Cosmos 1378 3.4 00:57:27 50° WSW 00:58:03 58° WNW 01:01:46 10° N
CZ-4B R/B 3.4 00:53:36 10° NNE 00:58:42 84° ESE 01:00:30 42° S
ERBS 3.5 00:58:04 10° WNW 01:00:13 31° W 01:00:13 31° W
Cosmos 2082 3.7 00:58:39 32° SW 01:01:26 81° WNW 01:07:13 10° NNE
Mayak -1.0 00:58:53 10° N 01:03:07 66° WNW 01:04:15 45° SW
H-2A R/B 2.2 01:04:03 49° SSW 01:04:53 59° WSW 01:09:07 10° NNW
Aureole 1 4.5 01:02:13 10° NNW 01:06:33 88° ENE 01:06:56 70° SSE
USA 229 DEB 4.0 01:13:41 35° S 01:16:10 50° ESE 01:22:47 10° NE
USA 229 4.0 01:13:49 35° S 01:16:16 49° ESE 01:22:53 10° NE
In-Cosmos 22 4.4 01:15:45 37° SSE 01:17:32 55° E 01:22:47 10° NNE
CZ-4B R/B 4.1 01:15:58 10° E 01:17:49 14° ENE 01:19:39 10° NNE
Cosmos 1553 Rocket 4.4 01:21:26 31° SSE 01:24:12 54° E 01:30:10 10° NNE
Cosmos 2292 Rocket 4.0 01:22:35 10° N 01:26:28 57° E 01:28:08 36° SE
Cosmos 1674 3.9 01:26:46 29° ESE 01:27:18 30° E 01:30:36 10° NNE
IKONOS-2 4.5 01:27:03 54° SSW 01:27:53 70° WSW 01:32:08 10° NNW
Cosmos 1400 Rocket 2.9 01:29:35 54° SW 01:30:25 74° W 01:34:36 10° N
Cosmos 1825 Rocket 3.6 01:31:56 48° SW 01:33:04 71° WNW 01:37:31 10° N
PSLV R/B 4.4 01:33:27 10° NNE 01:37:34 39° E 01:38:45 33° SE
COSMOS 2455 3.6 01:33:57 15° WSW 01:38:41 48° NW 01:44:32 10° NNE
MOS 1 Rocket 4.1 01:33:53 10° NNE 01:39:12 51° E 01:41:21 33° SSE
Resurs 1-4 Rocket 4.5 01:42:48 10° ENE 01:44:53 12° E 01:46:57 10° ESE
Cosmos 1238 Rocket 3.2 01:44:18 43° SW 01:45:29 59° W 01:49:22 10° N
Cosmos 1818 4.3 01:54:34 18° WSW 01:58:24 48° NW 02:03:43 10° NNE
Meteor 1-24 Rocket 3.8 01:57:40 35° SSW 02:00:11 78° WNW 02:06:09 10° N
ISS -1.5 01:59:33 10° WNW 02:00:17 15° W 02:00:17 15° W
Cosmos 1315 Rocket 2.9 02:04:05 49° SW 02:04:55 64° WNW 02:08:52 10° N
Meteor 2-10 4.0 02:00:14 10° N 02:05:18 74° ENE 02:07:48 30° SSE
USA 234 4.5 02:00:08 10° ENE 02:06:14 43° N 02:12:21 10° WNW
Cosmos 1908 3.2 02:02:29 10° NNW 02:06:18 67° W 02:06:56 55° SSW
Cosmos 1943 3.2 02:00:51 10° NNW 02:06:36 85° ENE 02:10:17 23° SSE
Cosmos 1842 Rocket 3.6 02:02:24 10° N 02:06:48 73° E 02:08:26 37° SSE
SL-16 R/B 3.6 02:03:21 10° NW 02:07:32 21° W 02:08:36 20° WSW
Meteor 2-5 Rocket 4.4 02:04:41 27° SW 02:07:32 48° WNW 02:13:17 10° N
KORONAS-FOTON 3.9 02:06:56 50° SSE 02:07:44 68° E 02:11:33 10° NNE
SL-16 R/B 3.8 02:02:07 10° SE 02:07:47 39° ENE 02:13:27 10° N
Cosmos 2263 Rocket 2.9 02:06:21 29° SSE 02:08:45 44° ESE 02:14:08 10° NE
Cosmos 1745 Rocket 4.0 02:02:29 10° NNW 02:08:51 76° W 02:12:06 31° S
GEOS 3 Rocket 4.4 02:06:51 10° NE 02:11:48 37° ESE 02:13:41 28° SSE
Cosmos 1726 2.0 02:10:28 10° NNW 02:14:09 80° W 02:14:50 56° S
Cosmos 1300 3.4 02:10:37 10° N 02:14:20 47° ENE 02:15:58 28° SE
TELKOM 3 4.4 02:15:57 38° ESE 02:15:57 38° ESE 02:17:43 10° E
Cosmos 1437 3.0 02:12:19 10° NNW 02:15:16 51° W 02:15:16 51° W
Cosmos 1346 Rocket 3.1 02:16:24 10° NNW 02:20:08 47° W 02:20:44 43° SW
Cosmos 1452 Rocket 3.4 02:16:20 10° NNW 02:21:38 78° WSW 02:24:23 29° SSE
CZ-4C R/B 3.0 02:22:57 51° WSW 02:23:06 52° W 02:26:25 10° NNW
Cosmos 2056 Rocket 4.4 02:19:09 10° NW 02:23:37 31° W 02:24:45 28° SW
H-2A R/B 4.5 02:20:37 10° NE 02:24:08 22° E 02:26:46 14° SE
Cosmos-2242 4.1 02:21:09 10° NNW 02:24:51 29° W 02:25:42 27° WSW
Cosmos 158 Rocket 4.2 02:22:59 32° S 02:25:27 67° ESE 02:30:48 10° NNE
Cosmos 2297 Rocket 4.2 02:24:44 10° W 02:29:00 21° NW 02:33:18 10° N
S3M 4.2 02:25:53 29° SSW 02:29:05 62° WNW 02:35:20 10° N
ADEOS Rocket 4.4 02:25:38 10° N 02:29:59 24° WNW 02:33:42 12° WSW
Cosmos 2227 Rocket 4.4 02:28:41 10° W 02:32:40 19° NW 02:36:40 10° N
Landsat 5 3.4 02:35:46 39° SSW 02:37:07 63° WSW 02:41:06 10° NNW
Cosmos 1603 4.5 02:34:22 10° NW 02:39:26 34° WSW 02:41:15 28° SW
Cosmos 1709 Rocket 4.0 02:39:21 10° NNW 02:45:45 79° W 02:50:00 22° S
Cosmos 1607 4.1 02:40:37 10° NW 02:47:07 81° NE 02:53:27 10° SE
NOSS 3-1 (C) 3.4 02:43:36 26° SW 02:47:08 83° NW 02:53:49 10° NE
Okean 3 Rocket 4.4 02:44:47 21° SSE 02:47:26 46° E 02:51:41 10° NNE
CZ-4B R/B 1.8 02:49:22 41° SW 02:50:01 48° W 02:53:20 10° NNW
Cosmos 1420 Rocket 4.2 02:44:59 10° NNW 02:50:03 52° WSW 02:52:36 27° S
SL-14 R/B 3.1 02:50:47 37° SSW 02:52:15 84° W 02:56:08 10° N
SeaSat 1 2.8 02:53:47 10° SE 02:58:40 66° ENE 03:03:35 10° NNW
Cosmos 1626 2.5 02:57:05 27° SSE 02:58:53 57° E 03:02:35 10° NNE
Cosmos 2285 Rocket 4.0 02:56:20 24° SSW 03:00:25 82° ESE 03:06:48 10° NNE
Cosmos 1076 Rocket 3.6 02:59:25 25° S 03:01:52 71° E 03:06:11 10° NNE
Cosmos 1674 4.3 03:01:38 18° W 03:02:55 22° WNW 03:05:53 10° NNW
CBERS-1 4.3 02:57:56 10° NNE 03:03:02 65° ESE 03:06:30 21° S
UNK 3.8 02:59:24 16° SSE 03:03:06 82° ENE 03:07:48 10° NNW
Cosmos 1328 4.0 03:03:38 25° S 03:05:50 68° E 03:09:48 10° NNE
Cosmos 1689 Rocket 3.0 03:06:41 31° WSW 03:07:02 32° W 03:09:54 10° NNW
USA 229 DEB 4.4 03:01:06 12° WSW 03:07:11 49° NW 03:13:59 10° NE
CZ-2D R/B 2.6 03:02:05 10° NNE 03:07:13 55° E 03:11:07 17° S
USA 229 4.4 03:01:14 12° WSW 03:07:17 50° NW 03:14:05 10° NE
NOSS 3-1 (A) 3.4 03:04:05 23° SW 03:07:57 85° NW 03:14:40 10° NE
Cosmos 2221 3.0 03:08:15 10° NNW 03:12:28 45° W 03:14:34 26° SSW
USA 267 4.1 03:06:48 10° ENE 03:12:44 36° SE 03:17:05 17° S
Cosmos 1340 3.7 03:09:32 10° NNW 03:12:54 30° W 03:13:56 26° SW
IRS-1D 4.2 03:07:53 10° NNE 03:13:08 52° E 03:17:28 15° S
Cosmos 1110 Rocket 4.1 03:09:15 10° NNW 03:14:30 81° ENE 03:19:41 10° SSE
SL-08 R/B 3.3 03:10:45 16° S 03:14:43 79° WSW 03:19:39 10° NNW
Genesis I 3.2 03:13:50 28° SSW 03:15:49 78° SE 03:19:53 10° NE
ARIANE 5 R/B 3.5 03:12:21 10° NNE 03:17:12 42° E 03:21:43 11° SSE
ATLAS 3B R/B 4.2 03:11:15 10° NW 03:17:27 37° NNE 03:23:30 10° E
Resurs 1-4 Rocket 2.2 03:20:13 10° NNE 03:25:34 80° ESE 03:29:45 17° S
IRS-P3 4.2 03:28:11 10° NNE 03:33:32 73° WNW 03:37:34 18° SSW
Cosmos 1844 Rocket 3.5 03:29:01 13° S 03:33:47 47° ESE 03:39:12 10° NE
Aureole 1 Rocket 3.5 03:33:17 19° WSW 03:34:45 28° WNW 03:37:24 10° N
NPP 3.8 03:31:07 10° N 03:36:28 64° WNW 03:40:33 17° SSW
PSLV R/B 3.9 03:33:26 11° S 03:37:21 77° WSW 03:41:36 10° NNW
Cosmos 1328 Rocket 3.7 03:34:29 10° N 03:38:49 73° E 03:43:07 10° SSE
MOZ.5/SAFIR/RUBIN 5/SL-8 3.8 03:37:41 10° S 03:42:24 69° WSW 03:47:10 10° NNW
Cosmos 2278 Rocket 4.3 03:40:34 10° SE 03:44:35 20° E 03:48:38 10° NE
ADEOS II 3.7 03:40:31 10° NNE 03:45:09 30° E 03:49:45 10° SSE
Cosmos 1703 3.2 03:42:47 17° SSW 03:45:47 81° W 03:49:46 10° N
Cosmos 921 Rocket 3.5 03:42:31 10° NW 03:46:32 39° WSW 03:49:53 14° SSW
Cosmos 1766 Rocket 3.5 03:45:12 16° SSW 03:48:36 73° WNW 03:53:00 10° N
USA 234 3.7 03:42:16 10° ESE 03:48:44 67° NNE 03:55:14 10° NW
Cosmos 1844 4.4 03:44:12 10° S 03:49:31 47° ESE 03:54:58 10° NE
GEOS 3 Rocket 4.2 03:44:45 10° NE 03:49:58 53° NW 03:54:47 12° WSW
Cosmos 2228 Rocket 3.5 03:46:01 10° N 03:50:37 67° ENE 03:55:09 10° SSE
SL-16 R/B 3.0 03:45:56 12° SSW 03:51:20 44° W 03:57:15 10° NNW
Cosmos 2263 Rocket 3.2 03:48:02 12° WSW 03:52:47 37° NW 03:58:04 10° NNE
UNKNOWN OBJECT B 3.7 03:50:51 10° NNE 03:54:25 44° E 03:58:03 10° S
Cosmos 1331 Rocket 4.1 03:50:30 10° NNW 03:55:32 53° WSW 04:00:32 10° S
USA 238 DEB 4.3 03:51:19 10° NW 03:58:23 66° NE 04:05:33 10° SE
USA 238 4.3 03:51:25 10° NW 03:58:30 66° NE 04:05:40 10° SE
H-2A R/B 3.2 03:55:34 10° N 03:59:51 45° WNW 04:03:22 14° SW
Cosmos 1455 2.5 03:56:26 10° NNW 04:00:05 45° W 04:03:22 12° SSW
Cosmos 1302 Rocket 4.0 03:55:13 10° NNW 04:00:32 83° WSW 04:05:50 10° SSE
Cosmos 1269 Rocket 4.5 03:56:30 14° SW 04:00:50 51° WNW 04:06:02 10° NNE
Meteor 1-11 4.3 03:56:32 13° SSW 04:01:32 66° WNW 04:07:12 10° N
NOSS 2-3 (D) 3.9 03:58:00 15° SW 04:01:57 90° N 04:07:37 10° NE
Cosmos 1515 Rocket 3.6 03:57:36 10° N 04:01:58 87° E 04:06:19 10° S
Cosmos 1809 Rocket 4.5 03:58:27 10° NNW 04:04:30 65° W 04:10:29 10° S
TELKOM 3 3.5 04:04:01 10° W 04:06:42 58° N 04:08:52 10° E
GP-B 4.1 04:03:13 10° NNE 04:07:32 47° E 04:11:49 10° SSE
Helios 1A Rocket 3.2 04:04:41 10° NNE 04:08:47 69° ESE 04:12:50 10° S
Cosmos 1869 3.5 04:06:46 10° N 04:10:43 74° E 04:14:38 10° SSE
Cosmos 2341 Rocket 4.2 04:05:16 10° N 04:11:32 79° E 04:17:50 10° SSE
COSMOS 2406 3.2 04:07:04 10° NNW 04:12:51 72° WSW 04:18:34 10° SSE
Cosmos 1151 Rocket 3.0 04:09:35 10° NNW 04:13:58 72° W 04:18:17 10° S
Cosmos 2251 Rocket 3.8 04:08:44 10° SSW 04:14:05 72° ESE 04:19:28 10° NNE
Cosmos 2058 3.0 04:10:58 10° SSW 04:15:07 65° WNW 04:19:20 10° N
Cosmos 1408 Rocket 4.0 04:11:30 12° SSW 04:15:22 47° WNW 04:19:37 10° N
Geosat 4.0 04:10:39 10° NNE 04:15:43 86° WNW 04:20:45 10° SSW
ADEOS 3.7 04:11:47 10° NNE 04:17:03 77° ESE 04:22:16 10° S
APEX 4.1 04:15:17 10° NNW 04:17:55 37° NE 04:20:31 10° SE
CZ-2D R/B 3.6 04:18:04 10° NNE 04:22:33 86° WNW 04:26:59 10° SSW
NOSS 2-3 (E) 4.2 04:18:05 11° SW 04:22:43 65° NW 04:28:25 10° NE
Timation 1 Rocket 4.4 04:20:10 10° SSW 04:26:08 87° ESE 04:32:08 10° NNE
SAR-Lupe-2 4.3 04:23:39 10° SSW 04:26:55 33° W 04:30:12 10° NNW
Cosmos 2082 Rocket 3.8 04:21:48 10° NNW 04:27:15 41° NE 04:32:39 10° ESE
Cosmos 2181 Rocket 4.4 04:24:23 10° S 04:30:48 72° E 04:37:14 10° NNE
ATLAS 2AS CENTAUR R/B 3.5 04:23:36 10° SSW 04:31:18 60° ESE 04:39:16 10° NE
Cosmos 1626 4.4 04:32:50 10° W 04:34:36 13° WNW 04:36:24 10° NW
SeaSat 1 3.7 04:32:51 10° SSW 04:36:35 21° WSW 04:40:19 10° WNW
Nadezhda 1 Rocket 4.4 04:30:39 10° SSW 04:36:39 49° WNW 04:42:47 10° N
Cosmos 2154 Rocket 4.4 04:33:47 10° NNW 04:39:45 47° W 04:45:44 10° SSW
